Location: Hokitika
(42.7170°S, 170.9670°E)
Time: 06:36:49
(UTC+12:00)

SL-16 R/B - Pass Details

Date: 24 January 2019
Orbit: 842 x 846 km, 71.0° (Epoch: 21 April)

Event Time Altitude Azimuth Distance (km) Brightness Sun altitude
Rises 22:39:17 0° 328° (NNW) 3,402 5.2 -14.3°
Reaches altitude 10° 22:41:45 10° 324° (NW) 2,474 4.5 -14.7°
Maximum altitude 22:47:23 64° 243° (WSW) 948 2.7 -15.4°
Drops below altitude 10° 22:53:06 10° 161° (SSE) 2,502 5.0 -16.1°
Sets 22:55:37 0° 157° (SSE) 3,444 5.7 -16.4°
